Flag for Sweden Weather past 2 weeks in Södertälje, Sweden

Now
19 °F

Passing clouds.


Feels Like: 19 °F
Forecast: 13 / 19 °F
Wind: 2 mph from West

Location: Stockholm Bromma Airport

Current Time: Dec 27, 2014 at 4:15:07 AM

Latest Report: Dec 27, 2014 at 3:50 AM


Visibility: N/A

Pressure: 29.92 "Hg

Humidity: 93%

Dew point: 18 °F

Location of SödertäljeLocation

Historic Weather in Södertälje — Graph

°F

Södertälje temperature yesterday

Maximum temperature yesterday: 27 °F (at 4:20 PM)
Minimum temperature yesterday: 16 °F (at 12:50 AM)
Average temperature yesterday: 22 °F

Past Weeks' High & Low Weather Summary

 TemperatureHumidityPressure
High41 °F (Dec 15, 9:50 AM)100% (Dec 12, 10:50 PM)30.09 "Hg (Dec 12, 10:50 PM)
Low12 °F (Dec 25, 5:50 PM)60% (Dec 21, 11:50 AM)28.77 "Hg (Dec 13, 1:20 AM)
Average32 °F88%29.43 "Hg
* Reported Dec 12 3:20 AM — Dec 27 3:20 AM, Södertälje, Weather by CustomWeather, © 2014

Note: Actual official high and low records may vary slightly from our data, if they occured in-between our weather recording intervals... More about our weather records

Advertising

Södertälje weather history for previous 24 hours

 ConditionsComfort  
Time TempWeatherWind HumidityBarometerVisibility
3:20 AM
Dec 27
19 °FMostly cloudy.1 mph93%29.92 "HgN/A
2:50 AM21 °FMostly cloudy.2 mph93%29.92 "HgN/A
2:20 AM23 °FSnow flurries. Overcast.3 mph93%29.92 "HgN/A
1:50 AM23 °FSnow flurries. Mostly cloudy.3 mph93%29.92 "HgN/A
1:20 AM23 °FLight snow. Overcast.3 mph93%29.92 "Hg2 mi
12:50 AM23 °FLight snow. Overcast.3 mph93%29.95 "Hg1 mi
12:20 AM23 °FLight snow. Partly cloudy.5 mph93%29.95 "Hg1 mi
11:50 PM
Dec 26
23 °FLight snow. Overcast.6 mph86%29.95 "Hg2 mi
11:20 PM25 °FLight snow. Overcast.5 mph74%29.95 "HgN/A
10:50 PM25 °FMostly cloudy.6 mph69%29.95 "HgN/A
10:20 PM25 °FPassing clouds.3 mph74%29.98 "HgN/A
9:50 PM25 °FClear.9 mph69%29.98 "Hg10 mi
9:20 PM25 °FClear.10 mph69%29.98 "Hg10 mi
8:50 PM23 °FPassing clouds.6 mph74%29.98 "HgN/A
8:20 PM25 °FClear.8 mph74%29.98 "Hg10 mi
7:50 PM25 °FClear.8 mph74%29.98 "Hg10 mi
7:20 PM25 °FClear.9 mph80%29.98 "Hg10 mi
6:50 PM25 °FClear.9 mph80%29.98 "Hg10 mi
6:20 PM25 °FClear.8 mph80%29.98 "Hg10 mi
5:50 PM25 °FClear.6 mph74%30.01 "Hg10 mi
5:20 PM25 °FClear.8 mph74%30.01 "Hg10 mi
4:20 PM27 °FClear.12 mph64%30.01 "Hg10 mi
3:50 PM25 °FClear.9 mph74%30.01 "Hg10 mi
3:20 PM25 °FClear.10 mph80%30.01 "Hg10 mi
2:50 PM25 °FSunny.10 mph74%30.01 "Hg10 mi
2:20 PM25 °FSunny.12 mph69%30.01 "Hg10 mi
1:50 PM25 °FSunny.13 mph69%30.04 "Hg10 mi
1:20 PM25 °FSunny.13 mph63%30.04 "Hg10 mi
12:50 PM25 °FSunny.10 mph63%30.04 "Hg10 mi
12:20 PM23 °FSunny.9 mph68%30.04 "Hg10 mi
11:50 AM23 °FSunny.12 mph63%30.07 "Hg10 mi
11:20 AM23 °FSunny.14 mph63%30.07 "Hg10 mi
10:50 AM21 °FSunny.12 mph68%30.07 "Hg10 mi
10:20 AM21 °FCold.14 mph68%30.07 "HgN/A
9:50 AM21 °FCold.13 mph63%30.07 "HgN/A
9:20 AM19 °FCold.12 mph68%30.07 "HgN/A
8:50 AM19 °FCold.7 mph68%30.07 "HgN/A
8:20 AM19 °FCold.10 mph68%30.07 "HgN/A
7:50 AM19 °FCold.10 mph63%30.07 "HgN/A
7:20 AM19 °FCold.12 mph63%30.07 "HgN/A
6:50 AM19 °FCold.10 mph68%30.07 "HgN/A
6:20 AM18 °FCold.7 mph73%30.07 "HgN/A
5:50 AM18 °FCold.6 mph73%30.07 "HgN/A
5:20 AM18 °FCold.7 mph73%30.09 "HgN/A
4:50 AM18 °FCold.9 mph79%30.09 "HgN/A
4:20 AM18 °FCold.7 mph79%30.09 "HgN/A
Weather by CustomWeather, © 2014

See weather overviewHow to use our weather pages